Voltar ao catálogo

STARLINK-4558

AtivoComunicaçõesVLEO
NORAD 53426·PAYLOAD·🇺🇸 United States

Lançado Aug 10, 2022 de Cape Canaveral Space Force Station

Loading…

Próximas Passagens (próximas 24 horas)

TLE

AtualizadoSource: CelesTrak SupGP

Época: Sep 14, 2026, 21:23 UTC

1 53426C 22097AQ  26257.89145833 -.00040944  00000+0 -12098-2 0  2574
2 53426  53.1594 319.8674 0001080  83.8167 151.9783 15.34407356    12

Acompanhe STARLINK-4558 em tempo real com AllMySat

Download on the App Store